Content
SEND FEEDBACK

Daily
Averages
Monthly
Summary
Greece

KALAMATA, GREECE


Home > Europe > Greece
Elevation: 26 feet     Latitude: 37 04N     Longitude: 022 01E

WEATHER
 
SELECT A DAY
Number of Records: 254,375;   Date Range: 7/1/96 - 12/24/14
 
SHARE

PRINT THIS DATA

[ ← Previous Day ]
WEATHER ALMANAC - JANUARY 10, 2013
[ Next Day → ]
[ °C ]   °F
Weather ElementAverageHighLow
Temperature48.1 °F55.4 °F (1:20 pm)35.6 °F (4:50 am)
Dewpoint34.3 °F46.4 °F (10:50 pm)26.6 °F (11:20 am)
Humidity60 %93 % (10:50 pm)40 % (11:20 am)
Barometer30.13 in30.18 in (7:50 am)30.04 in (10:50 pm)
Wind Speed2.8 mph8.1 mph (2:20 pm)
Weather ElementAverage
Visibility6.2 mi
Wind DirectionE (93.2 °)

Weather ElementTotal
Precipitation---
Heating Degree Days19.5 (Base 65)
Averaged from 31 records on January 10, 2013
WEATHER CONDITIONS BREAKOUT
WIND DIRECTION BREAKOUT
WEATHER BY HOUR - JANUARY 10, 2013
[ °C ]   °F
Local TimeTemperatureDewpointHumidityBarometerVisibilityWind DirectionWind SpeedGust SpeedPrecipitationEventsConditions
4:50 AM35.6 °F28.4 °F75 %30.15 in6.2 miCalmMostly Cloudy
5:50 AM37.4 °F28.4 °F70 %30.15 in6.2 miCalmMostly Cloudy
6:20 AM37.4 °F28.4 °F70 %30.15 in6.2 miNorth (350°)4.6 mphMostly Cloudy
6:50 AM37.4 °F30.2 °F75 %30.15 in6.2 miCalmMostly Cloudy
7:20 AM35.6 °F30.2 °F81 %30.15 in6.2 miNNW (340°)5.8 mphMostly Cloudy
7:50 AM37.4 °F30.2 °F75 %30.18 in6.2 miCalmMostly Cloudy
8:20 AM37.4 °F30.2 °F75 %30.18 in6.2 miCalmMostly Cloudy
8:50 AM39.2 °F30.2 °F70 %30.18 in6.2 miCalmMostly Cloudy
9:20 AM41.0 °F32.0 °F70 %30.18 in6.2 miCalmMostly Cloudy
9:50 AM42.8 °F32.0 °F66 %30.18 in6.2 miCalmMostly Cloudy
10:20 AM46.4 °F30.2 °F53 %30.18 in6.2 miCalmMostly Cloudy
10:50 AM48.2 °F28.4 °F46 %30.18 in6.2 miCalmMostly Cloudy
11:20 AM50.0 °F26.6 °F40 %30.18 in6.2 miCalmMostly Cloudy
11:50 AM51.8 °F30.2 °F44 %30.18 in6.2 miCalmMostly Cloudy
12:20 PM53.6 °F30.2 °F41 %30.15 in6.2 miCalmMostly Cloudy
12:50 PM53.6 °F32.0 °F44 %30.15 in6.2 miCalmMostly Cloudy
1:20 PM55.4 °F35.6 °F47 %30.15 in6.2 miSouth (190°)6.9 mphMostly Cloudy
1:50 PM55.4 °F35.6 °F47 %30.12 in6.2 miSouth (190°)6.9 mphMostly Cloudy
2:20 PM55.4 °F37.4 °F51 %30.12 in6.2 miSSW (200°)8.1 mphMostly Cloudy
2:50 PM55.4 °F39.2 °F54 %30.12 in6.2 miSouth (170°)8.1 mphMostly Cloudy
3:20 PM55.4 °F39.2 °F54 %30.12 in6.2 miSouth (190°)8.1 mphMostly Cloudy
3:50 PM55.4 °F39.2 °F54 %30.09 in6.2 miSouth (190°)6.9 mphMostly Cloudy
4:20 PM53.6 °F37.4 °F54 %30.09 in6.2 miSouth (190°)6.9 mphMostly Cloudy
4:50 PM53.6 °F37.4 °F54 %30.09 in6.2 miSouth (180°)4.6 mphMostly Cloudy
5:20 PM53.6 °F39.2 °F58 %30.09 in6.2 miSouth (180°)4.6 mphOvercast
5:50 PM53.6 °F39.2 °F58 %30.09 in6.2 miSouth (180°)4.6 mphOvercast
6:20 PM53.6 °F39.2 °F58 %30.09 in6.2 miSSE (150°)4.6 mphOvercast
6:50 PM53.6 °F39.2 °F58 %30.09 in6.2 miSouth (190°)4.6 mphOvercast
7:20 PM53.6 °F41.0 °F62 %30.09 in6.2 miCalmOvercast
7:50 PM51.8 °F39.2 °F62 %30.06 in6.2 miCalmOvercast
10:50 PM48.2 °F46.4 °F93 %30.04 in6.2 miCalmOvercast
Hourly data recorded from LGKL, located miles away from Kalamata, Greece







STORIES FROM OUR PARTNERS